Regional Weather Roundup
Issued by NWS

Home | Current Version | Previous Version | Graphics & Text | Print | Product List | Glossary On
Versions: 1 2 3 4 5 6 7 8 9 10 11 12 13 14 15 16 17 18 19 20 21 22 23 24 25 26 27 28 29 30 31 32 33 34 35 36 37 38 39 40 41 42 43 44 45 46 47 48 49 50
000
ASUS43 KLMK 140602
RWRKY
KENTUCKY REGIONAL WEATHER ROUNDUP
NATIONAL WEATHER SERVICE LOUISVILLE KY
100 AM EST SUN FEB 14 2016

NOTE "FAIR" INDICATES FEW OR NO CLOUDS BELOW 12,000 FEET
WITH NO SIGNIFICANT WEATHER AND/OR OBSTRUCTIONS TO VISIBILITY.

KYZ001>023-026-027-061>063-070>075-140700-
WESTERN AND SOUTH CENTRAL KENTUCKY

CITY           SKY/WX    TMP DP  RH WIND       PRES   REMARKS
PADUCAH        CLOUDY    25   9  50 E9        30.40F WCI  15
HENDERSON      CLOUDY    23   3  42 E8        30.46S WCI  14
OWENSBORO      CLOUDY    22   2  42 E6        30.47R WCI  15
HOPKINSVILLE   CLOUDY    25   6  45 E7        30.42F WCI  17
BOWLING GREEN  CLOUDY    25   6  44 E8        30.44S WCI  16
GLASGOW        NOT AVBL
$$

KYZ024-025-028>034-038-045-046-053-140700-
NORTH CENTRAL KENTUCKY

CITY           SKY/WX    TMP DP  RH WIND       PRES   REMARKS
LOUISVILLE/SDF CLOUDY    20   2  45 E8        30.47F WCI  10
LOUISVILLE/LOU CLOUDY    19   3  49 E8        30.47F WCI   9
FORT KNOX      CLOUDY    19   4  51 E7        30.42F WCI  10
$$

KYZ035>037-039>044-047>052-055>060-089>105-140700-
NORTHEAST KENTUCKY

CITY           SKY/WX    TMP DP  RH WIND       PRES   REMARKS
LEXINGTON      CLOUDY    17   3  54 E8        30.44S WCI   7
COVINGTON      CLOUDY    11   6  81 CALM      30.46S
FRANKFORT      CLOUDY    17   2  51 E7        30.45S WCI   8
$$

KYZ054-064>069-076>088-106>120-140700-
SOUTHEAST KENTUCKY

CITY           SKY/WX    TMP DP  RH WIND       PRES   REMARKS
JACKSON        CLOUDY    13   1  59 VRB3      30.41F
LONDON         CLOUDY    16   4  59 E5        30.40F WCI   9
SOMERSET       NOT AVBL
MIDDLESBORO    NOT AVBL
MONTICELLO     CLOUDY    17   8  67 NW6       30.44F WCI   9
$$




USA.gov is the U.S. government's official web portal to all federal, state and local government web resources and services.